User: anonymous   Login
Location: Capannuccia
(43.7000°N, 11.3000°E)
Time: 16:31:04
(UTC+00:00)
Language:

Resurs 1-4 Rocket - Orbit

View from above orbital plane
View from above orbital plane
View from above satellite
View from above satellite

Ground track
Ground track

The orbit data is extracted from the following two-line orbital elements,

1 25400U 98043G   20227.83363458 -.00000023  00000-0  84934-5 0  9997
2 25400  98.6082 162.6907 0010216 158.8512 201.3092 14.25458980149565
Epoch (UTC): 14 August 2020 20:00:26
Eccentricity: 0.0010216
inclination: 98.6082°
perigee height: 799 km
apogee height: 814 km
right ascension of ascending node: 162.6907°
argument of perigee: 158.8512°
revolutions per day: 14.25458980
mean anomaly at epoch: 201.3092°
orbit number at epoch: 14956

The dashed part of the orbit path shows where the satellite is in the earth's shadow,  

DLR